Hourly Data Report for September 21, 2017

All times are specified in Local Standard Time (LST). Add 1 hour to adjust for Daylight Saving Time where and when it is observed.

ALERT CLIMATE
NUNAVUT

82°30'00.000" N
62°20'00.000" W
65.40 m
2400305
71355
ZLT

Download Data

Hourly Data (September 2017)
Hourly Data Report for September 21, 2017
Temp Definition
°C
Dew Point Temp Definition
°C
Rel Hum Definition
%
Wind Dir Definition
10's deg

Wind Spd Definition
km/h
Visibility Definition
km
Stn Press Definition
kPa
Hmdx Definition


Wind Chill Definition


Weather Definition


TIME
00:00 -10.5 -13.1 81 27 11   101.74   -16 LegendNANA
01:00 -8.9 -11.6 81 28 5   101.70   -12 LegendNANA
02:00 -7.8 -10.9 78 25 2   101.68   -9 LegendNANA
03:00 -9.4 -12.7 77 29 5   101.65   -12 LegendNANA
04:00 -10.8 -14.9 72 29 9   101.63   -16 LegendNANA
05:00 -8.5 -12.4 73 26 6   101.60   -12 LegendNANA
06:00 -9.4 -13.1 74 26 14   101.56   -16 LegendNANA
07:00 -7.0 -12.1 67 28 2   101.55   -8 LegendNANA
08:00 -6.6 -12.0 65 16 3   101.55   -8 LegendNANA
09:00 -7.4 -12.8 65 28 8   101.53   -11 LegendNANA
10:00 -6.8 -11.7 68 27 10   101.53   -11 LegendNANA
11:00 -6.4 -11.1 69 29 18   101.50   -13 LegendNANA
12:00 -5.9 -10.7 69 28 15   101.46   -12 LegendNANA
13:00 -4.3 -8.9 70 29 17   101.41   -10 LegendNANA
14:00 -5.8 -9.9 73 29 14   101.36   -11 LegendNANA
15:00 -5.3 -9.8 71 29 13   101.33   -10 LegendNANA
16:00 -5.2 -9.4 72 28 13   101.30   -10 LegendNANA
17:00 -5.7 -9.8 73 28 12   101.26   -11 LegendNANA
18:00 -6.3 -9.9 75 28 11   101.22   -11 LegendNANA
19:00 -6.1 -9.9 74 33 2   101.18   -7 LegendNANA
20:00 -4.3 -9.5 67 16 3   101.15   -6 LegendNANA
21:00 -8.0 -9.4 89 33 17   101.16   -15 LegendNANA
22:00 -7.2 -8.8 88 26 5   101.15   -10 LegendNANA
23:00 -7.3 -8.5 91 28 8   101.13   -11 LegendNANA

Notes on Data Quality.

Legend

  • E = Estimated
  • M = Missing
  • NA = Not Available
  • ‡ = Partner data that is not subject to review by the National Climate Archives
Date modified: